Time,TemperatureF,DewpointF,PressureIn,WindDirection,WindDirectionDegrees,WindSpeedMPH,WindSpeedGustMPH,Humidity,HourlyPrecipIn,Conditions,Clouds,dailyrainin,SolarRadiationWatts/m^2,SoftwareType,DateUTC
2013-01-15 00:05:00,74.0,66.0,30.09,ESE,119,0.0,-999.0,75,-99.99,,,0.00,0,weatherlink.com 1.10,2013-01-15 05:05:00,
2013-01-15 00:20:00,73.9,66.0,30.08,South,184,2.0,-999.0,75,-99.99,,,0.00,0,weatherlink.com 1.10,2013-01-15 05:20:00,
2013-01-15 00:35:00,73.9,65.0,30.08,South,178,0.0,-999.0,74,-99.99,,,0.00,0,weatherlink.com 1.10,2013-01-15 05:35:00,
2013-01-15 00:50:00,73.9,65.0,30.08,East,98,3.0,-999.0,74,-99.99,,,0.00,0,weatherlink.com 1.10,2013-01-15 05:50:00,
2013-01-15 01:05:00,73.9,65.0,30.08,SE,125,0.0,-999.0,74,-99.99,,,0.00,0,weatherlink.com 1.10,2013-01-15 06:05:00,
2013-01-15 01:20:00,74.0,65.0,30.08,SE,143,0.0,-999.0,74,-99.99,,,0.00,0,weatherlink.com 1.10,2013-01-15 06:20:00,
2013-01-15 01:35:00,73.9,65.0,30.07,SE,143,0.0,-999.0,74,-99.99,,,0.00,0,weatherlink.com 1.10,2013-01-15 06:35:00,
2013-01-15 01:50:00,74.2,66.0,30.07,SE,144,0.0,-999.0,75,-99.99,,,0.00,0,weatherlink.com 1.10,2013-01-15 06:50:00,
2013-01-15 02:05:00,74.4,66.0,30.07,SSE,156,2.0,-999.0,76,-99.99,,,0.00,0,weatherlink.com 1.10,2013-01-15 07:05:00,
2013-01-15 02:20:00,74.4,66.0,30.07,SE,142,2.0,-999.0,76,-99.99,,,0.00,0,weatherlink.com 1.10,2013-01-15 07:20:00,
2013-01-15 02:35:00,74.2,66.0,30.06,SE,142,0.0,-999.0,76,-99.99,,,0.00,0,weatherlink.com 1.10,2013-01-15 07:35:00,
2013-01-15 02:50:00,74.0,66.0,30.05,SSE,147,0.0,-999.0,76,-99.99,,,0.00,0,weatherlink.com 1.10,2013-01-15 07:50:00,
2013-01-15 03:05:00,74.0,66.0,30.05,SSE,150,0.0,-999.0,77,-99.99,,,0.00,0,weatherlink.com 1.10,2013-01-15 08:05:00,
2013-01-15 03:20:00,73.9,66.0,30.05,SSE,149,0.0,-999.0,77,-99.99,,,0.00,0,weatherlink.com 1.10,2013-01-15 08:20:00,
2013-01-15 03:35:00,73.9,66.0,30.05,SSE,149,0.0,-999.0,77,-99.99,,,0.00,0,weatherlink.com 1.10,2013-01-15 08:35:00,
2013-01-15 03:50:00,73.9,67.0,30.05,SSE,149,0.0,-999.0,78,-99.99,,,0.00,0,weatherlink.com 1.10,2013-01-15 08:50:00,
2013-01-15 04:05:00,73.7,66.0,30.04,SSE,149,0.0,-999.0,78,-99.99,,,0.00,0,weatherlink.com 1.10,2013-01-15 09:05:00,
2013-01-15 04:20:00,73.5,66.0,30.04,SSE,148,0.0,-999.0,77,-99.99,,,0.00,0,weatherlink.com 1.10,2013-01-15 09:20:00,
2013-01-15 04:35:00,73.5,66.0,30.04,SSE,160,0.0,-999.0,77,-99.99,,,0.00,0,weatherlink.com 1.10,2013-01-15 09:35:00,
2013-01-15 04:50:00,73.7,66.0,30.04,SSE,160,4.0,-999.0,78,-99.99,,,0.00,0,weatherlink.com 1.10,2013-01-15 09:50:00,
2013-01-15 05:05:00,73.9,67.0,30.04,SSE,160,4.0,-999.0,78,-99.99,,,0.00,0,weatherlink.com 1.10,2013-01-15 10:05:00,
2013-01-15 05:20:00,73.7,66.0,30.05,SSE,161,2.0,-999.0,78,-99.99,,,0.00,0,weatherlink.com 1.10,2013-01-15 10:20:00,
2013-01-15 05:35:00,73.5,66.0,30.05,SSE,161,0.0,-999.0,77,-99.99,,,0.00,0,weatherlink.com 1.10,2013-01-15 10:35:00,
2013-01-15 05:50:00,73.7,66.0,30.05,SSE,161,0.0,-999.0,77,-99.99,,,0.00,0,weatherlink.com 1.10,2013-01-15 10:50:00,
2013-01-15 06:05:00,73.7,66.0,30.05,SSE,161,0.0,-999.0,78,-99.99,,,0.00,0,weatherlink.com 1.10,2013-01-15 11:05:00,
2013-01-15 06:20:00,73.9,67.0,30.05,SE,140,5.0,-999.0,78,-99.99,,,0.00,0,weatherlink.com 1.10,2013-01-15 11:20:00,
2013-01-15 06:35:00,73.9,67.0,30.05,East,86,3.0,-999.0,78,-99.99,,,0.00,0,weatherlink.com 1.10,2013-01-15 11:35:00,
2013-01-15 06:50:00,74.0,67.0,30.05,East,99,1.0,-999.0,78,-99.99,,,0.00,0,weatherlink.com 1.10,2013-01-15 11:50:00,
2013-01-15 07:05:00,73.9,66.0,30.05,SSE,154,3.0,-999.0,77,-99.99,,,0.00,0,weatherlink.com 1.10,2013-01-15 12:05:00,
2013-01-15 07:20:00,73.9,66.0,30.06,SE,130,2.0,-999.0,76,-99.99,,,0.00,18,weatherlink.com 1.10,2013-01-15 12:20:00,
2013-01-15 07:35:00,74.2,66.0,30.07,SE,146,6.0,-999.0,76,-99.99,,,0.00,56,weatherlink.com 1.10,2013-01-15 12:35:00,
2013-01-15 07:50:00,74.7,67.0,30.07,SE,138,0.0,-999.0,77,-99.99,,,0.00,35,weatherlink.com 1.10,2013-01-15 12:50:00,
2013-01-15 08:05:00,74.7,67.0,30.07,SSE,155,2.0,-999.0,77,-99.99,,,0.00,39,weatherlink.com 1.10,2013-01-15 13:05:00,
2013-01-15 08:20:00,75.1,67.0,30.08,SSE,163,1.0,-999.0,77,-99.99,,,0.00,60,weatherlink.com 1.10,2013-01-15 13:20:00,
2013-01-15 08:35:00,75.4,67.0,30.08,SSE,154,4.0,-999.0,76,-99.99,,,0.00,116,weatherlink.com 1.10,2013-01-15 13:35:00,
2013-01-15 08:50:00,76.0,68.0,30.08,SSE,157,4.0,-999.0,75,-99.99,,,0.00,137,weatherlink.com 1.10,2013-01-15 13:50:00,
2013-01-15 09:05:00,76.3,68.0,30.08,SSE,147,0.0,-999.0,75,-99.99,,,0.00,195,weatherlink.com 1.10,2013-01-15 14:05:00,
2013-01-15 09:20:00,76.5,68.0,30.08,SSE,161,2.0,-999.0,74,-99.99,,,0.00,225,weatherlink.com 1.10,2013-01-15 14:20:00,
2013-01-15 09:35:00,76.7,67.0,30.09,SE,146,4.0,-999.0,73,-99.99,,,0.00,260,weatherlink.com 1.10,2013-01-15 14:35:00,
2013-01-15 09:50:00,77.0,68.0,30.09,SSE,153,3.0,-999.0,73,-99.99,,,0.00,267,weatherlink.com 1.10,2013-01-15 14:50:00,
2013-01-15 10:05:00,77.0,68.0,30.09,SSE,149,0.0,-999.0,73,-99.99,,,0.00,241,weatherlink.com 1.10,2013-01-15 15:05:00,
2013-01-15 10:20:00,77.0,68.0,30.09,SE,142,5.0,-999.0,73,-99.99,,,0.00,255,weatherlink.com 1.10,2013-01-15 15:20:00,
2013-01-15 10:35:00,77.6,68.0,30.08,ESE,109,2.0,-999.0,72,-99.99,,,0.00,294,weatherlink.com 1.10,2013-01-15 15:35:00,
2013-01-15 10:50:00,77.6,68.0,30.08,SE,145,3.0,-999.0,71,-99.99,,,0.00,371,weatherlink.com 1.10,2013-01-15 15:50:00,
2013-01-15 11:05:00,77.6,67.0,30.07,SE,136,2.0,-999.0,70,-99.99,,,0.00,482,weatherlink.com 1.10,2013-01-15 16:05:00,
2013-01-15 11:20:00,78.1,68.0,30.07,SSE,153,3.0,-999.0,71,-99.99,,,0.00,362,weatherlink.com 1.10,2013-01-15 16:20:00,
2013-01-15 11:35:00,78.1,68.0,30.06,East,79,2.0,-999.0,71,-99.99,,,0.00,364,weatherlink.com 1.10,2013-01-15 16:35:00,
2013-01-15 11:50:00,77.9,67.0,30.06,ENE,75,7.0,-999.0,69,-99.99,,,0.00,336,weatherlink.com 1.10,2013-01-15 16:50:00,
2013-01-15 12:05:00,78.1,68.0,30.05,SSE,158,2.0,-999.0,70,-99.99,,,0.00,410,weatherlink.com 1.10,2013-01-15 17:05:00,
2013-01-15 12:20:00,78.8,68.0,30.05,East,89,2.0,-999.0,69,-99.99,,,0.00,452,weatherlink.com 1.10,2013-01-15 17:20:00,
2013-01-15 12:35:00,78.6,68.0,30.04,East,92,1.0,-999.0,69,-99.99,,,0.00,420,weatherlink.com 1.10,2013-01-15 17:35:00,
2013-01-15 12:50:00,78.8,67.0,30.04,NE,53,5.0,-999.0,68,-99.99,,,0.00,547,weatherlink.com 1.10,2013-01-15 17:50:00,
2013-01-15 13:05:00,79.6,68.0,30.03,East,92,4.0,-999.0,68,-99.99,,,0.00,497,weatherlink.com 1.10,2013-01-15 18:05:00,
2013-01-15 13:20:00,79.0,68.0,30.03,SSE,159,3.0,-999.0,70,-99.99,,,0.00,577,weatherlink.com 1.10,2013-01-15 18:20:00,
2013-01-15 13:35:00,79.8,67.0,30.03,ESE,121,2.0,-999.0,66,-99.99,,,0.00,889,weatherlink.com 1.10,2013-01-15 18:35:00,
2013-01-15 13:50:00,79.6,67.0,30.02,ESE,116,2.0,-999.0,66,-99.99,,,0.00,751,weatherlink.com 1.10,2013-01-15 18:50:00,
2013-01-15 14:05:00,79.0,68.0,30.02,SE,137,4.0,-999.0,68,-99.99,,,0.00,649,weatherlink.com 1.10,2013-01-15 19:05:00,
2013-01-15 14:20:00,79.6,68.0,30.02,SE,144,4.0,-999.0,67,-99.99,,,0.00,635,weatherlink.com 1.10,2013-01-15 19:20:00,
2013-01-15 14:35:00,79.4,67.0,30.02,SSE,148,3.0,-999.0,67,-99.99,,,0.00,650,weatherlink.com 1.10,2013-01-15 19:35:00,
2013-01-15 14:50:00,79.0,68.0,30.02,NE,47,0.0,-999.0,68,-99.99,,,0.00,592,weatherlink.com 1.10,2013-01-15 19:50:00,
2013-01-15 15:05:00,79.0,67.0,30.02,SE,133,2.0,-999.0,67,-99.99,,,0.00,548,weatherlink.com 1.10,2013-01-15 20:05:00,
2013-01-15 15:20:00,79.0,67.0,30.02,SSE,153,6.0,-999.0,67,-99.99,,,0.00,487,weatherlink.com 1.10,2013-01-15 20:20:00,
2013-01-15 15:35:00,78.6,67.0,30.02,SE,132,2.0,-999.0,68,-99.99,,,0.00,443,weatherlink.com 1.10,2013-01-15 20:35:00,
2013-01-15 15:50:00,78.1,67.0,30.02,SSE,148,2.0,-999.0,69,-99.99,,,0.00,134,weatherlink.com 1.10,2013-01-15 20:50:00,
2013-01-15 16:05:00,78.1,68.0,30.02,ENE,57,2.0,-999.0,70,-99.99,,,0.00,352,weatherlink.com 1.10,2013-01-15 21:05:00,
2013-01-15 16:20:00,77.2,67.0,30.03,East,82,5.0,-999.0,70,-99.99,,,0.00,301,weatherlink.com 1.10,2013-01-15 21:20:00,
2013-01-15 16:35:00,77.2,67.0,30.03,ENE,63,1.0,-999.0,71,-99.99,,,0.00,269,weatherlink.com 1.10,2013-01-15 21:35:00,
2013-01-15 16:50:00,76.7,67.0,30.04,East,80,2.0,-999.0,71,-99.99,,,0.00,221,weatherlink.com 1.10,2013-01-15 21:50:00,
2013-01-15 17:05:00,76.5,67.0,30.04,SE,126,0.0,-999.0,72,-99.99,,,0.00,56,weatherlink.com 1.10,2013-01-15 22:05:00,
2013-01-15 17:20:00,75.8,66.0,30.04,East,82,2.0,-999.0,72,-99.99,,,0.00,51,weatherlink.com 1.10,2013-01-15 22:20:00,
2013-01-15 17:35:00,75.8,67.0,30.05,ENE,69,0.0,-999.0,73,-99.99,,,0.00,16,weatherlink.com 1.10,2013-01-15 22:35:00,
2013-01-15 17:50:00,75.6,66.0,30.05,East,95,2.0,-999.0,73,-99.99,,,0.00,5,weatherlink.com 1.10,2013-01-15 22:50:00,
2013-01-15 18:05:00,75.3,66.0,30.05,ENE,78,0.0,-999.0,73,-99.99,,,0.00,0,weatherlink.com 1.10,2013-01-15 23:05:00,
2013-01-15 18:20:00,74.9,66.0,30.05,East,82,2.0,-999.0,73,-99.99,,,0.00,0,weatherlink.com 1.10,2013-01-15 23:20:00,
2013-01-15 18:35:00,74.6,65.0,30.05,East,80,0.0,-999.0,73,-99.99,,,0.00,0,weatherlink.com 1.10,2013-01-15 23:35:00,
2013-01-15 18:50:00,74.4,66.0,30.05,ENE,78,0.0,-999.0,74,-99.99,,,0.00,0,weatherlink.com 1.10,2013-01-15 23:50:00,
2013-01-15 19:05:00,74.0,65.0,30.05,ENE,78,0.0,-999.0,74,-99.99,,,0.00,0,weatherlink.com 1.10,2013-01-16 00:05:00,
2013-01-15 19:20:00,73.9,65.0,30.05,ENE,78,0.0,-999.0,74,-99.99,,,0.00,0,weatherlink.com 1.10,2013-01-16 00:20:00,
2013-01-15 19:35:00,73.9,65.0,30.04,ENE,69,0.0,-999.0,74,-99.99,,,0.00,0,weatherlink.com 1.10,2013-01-16 00:35:00,
2013-01-15 19:50:00,73.7,65.0,30.04,ENE,69,0.0,-999.0,74,-99.99,,,0.00,0,weatherlink.com 1.10,2013-01-16 00:50:00,
2013-01-15 20:05:00,73.5,65.0,30.04,ENE,69,0.0,-999.0,75,-99.99,,,0.00,0,weatherlink.com 1.10,2013-01-16 01:05:00,
2013-01-15 20:20:00,73.3,65.0,30.04,ENE,69,0.0,-999.0,75,-99.99,,,0.00,0,weatherlink.com 1.10,2013-01-16 01:20:00,
2013-01-15 20:35:00,73.3,65.0,30.04,ESE,106,0.0,-999.0,75,-99.99,,,0.00,0,weatherlink.com 1.10,2013-01-16 01:35:00,
2013-01-15 20:50:00,73.0,65.0,30.03,East,98,0.0,-999.0,75,-99.99,,,0.00,0,weatherlink.com 1.10,2013-01-16 01:50:00,
2013-01-15 21:05:00,72.8,64.0,30.03,East,80,0.0,-999.0,74,-99.99,,,0.00,0,weatherlink.com 1.10,2013-01-16 02:05:00,
2013-01-15 21:20:00,72.7,63.0,30.02,East,80,0.0,-999.0,72,-99.99,,,0.00,0,weatherlink.com 1.10,2013-01-16 02:20:00,
2013-01-15 21:35:00,72.7,63.0,30.02,East,80,0.0,-999.0,71,-99.99,,,0.00,0,weatherlink.com 1.10,2013-01-16 02:35:00,
2013-01-15 21:50:00,73.2,63.0,30.02,ENE,75,0.0,-999.0,71,-99.99,,,0.00,0,weatherlink.com 1.10,2013-01-16 02:50:00,
2013-01-15 22:05:00,73.3,63.0,30.01,ENE,78,1.0,-999.0,71,-99.99,,,0.00,0,weatherlink.com 1.10,2013-01-16 03:05:00,
2013-01-15 22:20:00,73.3,64.0,30.01,ENE,72,0.0,-999.0,72,-99.99,,,0.00,0,weatherlink.com 1.10,2013-01-16 03:20:00,
2013-01-15 22:35:00,73.5,64.0,30.00,ESE,117,0.0,-999.0,73,-99.99,,,0.00,0,weatherlink.com 1.10,2013-01-16 03:35:00,
2013-01-15 22:50:00,73.5,64.0,30.00,East,101,3.0,-999.0,73,-99.99,,,0.00,0,weatherlink.com 1.10,2013-01-16 03:50:00,
2013-01-15 23:05:00,73.3,64.0,30.00,ESE,104,0.0,-999.0,73,-99.99,,,0.00,0,weatherlink.com 1.10,2013-01-16 04:05:00,
2013-01-15 23:20:00,73.3,65.0,30.00,ESE,118,0.0,-999.0,74,-99.99,,,0.00,0,weatherlink.com 1.10,2013-01-16 04:20:00,
2013-01-15 23:35:00,73.2,64.0,30.00,ESE,109,1.0,-999.0,74,-99.99,,,0.00,0,weatherlink.com 1.10,2013-01-16 04:35:00,
2013-01-15 23:50:00,73.3,65.0,30.00,ESE,112,0.0,-999.0,75,-99.99,,,0.00,0,weatherlink.com 1.10,2013-01-16 04:50:00,